Regional Weather Roundup
Issued by NWS Sterling, VA

Home | Current Version | Previous Version | Graphics & Text | Print | Product List | Glossary On
Versions: 1 2 3 4 5 6 7 8 9 10 11 12 13 14 15 16 17 18 19 20 21 22 23 24 25 26 27 28 29 30 31 32 33 34 35 36 37 38 39 40 41 42 43 44 45 46 47
000
ASUS41 KLWX 280110
RWRLWX

REGIONAL WEATHER ROUNDUP
NATIONAL WEATHER SERVICE BALTIMORE MD/WASHINGTON DC
900 PM EDT MON JUL 27 2015

Note: "FAIR" indicates few or no clouds below 12,000 feet
with no significant weather and/or obstructions to visibility.
 TC=TEMPERATURE CELSIUS

 * =Non NWS site. Station does not report precipitation (e.g. rain,
    snow, etc.), thunder, or fog.

DCZ001-MDZ009-015-VAZ040>042-051-053>054-280200-
WASHINGTON METRO

CITY           SKY/WX    TMP DP  RH WIND       PRES   REMARKS
WASHINGTON NAT PTCLDY    82  73  74 SE3       29.99R
DULLES         MOCLDY    76  71  85 SE3       29.99R
ANDREWS AFB    CLEAR     76  74  93 SE3       29.99R
FT BELVOIR     PTCLDY    78  73  86 CALM      29.98R
QUANTICO       MOCLDY    82  70  66 SW10      29.99R
COLLEGE PARK*  CLEAR     77  73  88 CALM      29.98S
LEESBURG*      PTCLDY    79  73  83 CALM      30.00R
MANASSAS*      CLEAR     79  73  83 CALM      29.98R
GAITHERSBURG*  CLEAR     73  66  78 SE3       30.04R

$$

MDZ006>007-011-014-280200-
BALTIMORE METRO

CITY           SKY/WX    TMP DP  RH WIND       PRES   REMARKS
BWI AIRPORT    PTCLDY    79  74  84 CALM      29.98R
MD SCIENCE CTR   N/A     81  73  76 MISG      29.99R
MARTIN STATE   PTCLDY    79  75  89 E3        29.99S
ANNAPOLIS      CLEAR     79  72  79 S9        29.98R
FORT MEADE*      N/A     73  72  94 CALM      30.01R

$$

MDZ012-015-019>023-280200-
MARYLAND EASTERN SHORE

CITY           SKY/WX    TMP DP  RH WIND       PRES   REMARKS
OCEAN CITY     PTCLDY    77  73  87 S5        30.00S
SALISBURY      PTCLDY    74  72  93 S5        30.00R
BAY BRIDGE AP*   N/A     79  72  78 S5        29.99R
CAMBRIDGE*     PTCLDY    79  72  78 SE3       29.99R
EASTON*        MOCLDY    81  72  74 S5        30.03R

$$

MDZ017>025-280200-
SOUTHERN MARYLAND

CITY           SKY/WX    TMP DP  RH WIND       PRES   REMARKS
PATUXENT RIVER MOCLDY    80  71  74 S6        29.98R
ST INIGOES     CLOUDY    81  73  76 S8        29.98R
LEONARDTOWN*   CLOUDY    79  70  73 CALM      30.01R

$$

MDZ003>005-280200-
NORTH CENTRAL MARYLAND

CITY           SKY/WX    TMP DP  RH WIND       PRES   REMARKS
FREDERICK*     PTCLDY    77  70  78 CALM      30.01R
HAGERSTOWN APT PTCLDY    81  70  69 SE3       30.00R
WESTMINSTER*   CLEAR     79  73  83 CALM      30.01S

$$

MDZ501>502-280200-
WESTERN MARYLAND

CITY           SKY/WX    TMP DP  RH WIND       PRES   REMARKS
OAKLAND*       PTCLDY    70 N/A N/A SE6       30.11S
CUMBERLAND*    CLEAR     79  72  78 CALM      30.03R

$$

VAZ025>031-280200-
SHENANDOAH VALLEY

CITY           SKY/WX    TMP DP  RH WIND       PRES   REMARKS
WINCHESTER*    CLEAR     77  72  83 SE3       30.00R
FRONT ROYAL*   FAIR      73  73 100 CALM      30.00R
LURAY*         FAIR      73  72  94 CALM      30.01S
NEW MARKET*    FAIR      69  69  99 CALM      30.00S
STAUNTON*      PTCLDY    76  69  79 CALM      30.03F
WAYNESBORO*    FAIR      70  69  98 NW5       30.03S

$$

WVZ021-048>050-054>055-280200-
EASTERN WEST VIRGINIA PANHANDLE

CITY           SKY/WX    TMP DP  RH WIND       PRES   REMARKS
MARTINSBURG    MOCLDY    78  71  79 E5        29.99R
PETERSBURG*    CLOUDY   N/A N/A N/A CALM      30.02R

$$

VAZ036>039-050-280200-
CENTRAL FOOTHILLS

CITY           SKY/WX    TMP DP  RH WIND       PRES   REMARKS
CHARLOTTESVILL MOCLDY    74  70  87 S3        30.00R
CULPEPER*      MOCLDY    75  73  95 CALM      30.00R
ORANGE*        CLOUDY    77  72  83 E6        30.02R
GORDONSVILLE*  FAIR      73  72  94 CALM      29.99S
WARRENTON*     FAIR      76  75  95 CALM      29.99R

$$

VAZ055>057-280200-
NORTH AND CENTRAL PIEDMONT

CITY           SKY/WX    TMP DP  RH WIND       PRES   REMARKS
FREDERICKSBRG* PTCLDY    78  70  75 CALM      29.98S
STAFFORD*      MOCLDY    77  68  72 S6        30.03R

$$

NCZ024-NYZ072-PAZ021-071-VAZ022-071-280200-
OTHER REGIONAL OBSERVATIONS

CITY           SKY/WX    TMP DP  RH WIND       PRES   REMARKS
NEW YORK CITY  CLOUDY    79  66  64 VRB3      30.03R
PHILADELPHIA   CLOUDY    80  70  71 S7        30.01R
PITTSBURGH     PTCLDY    83  61  47 N7        30.00R
ROANOKE        MOCLDY    80  74  81 SE3       30.01S
RICHMOND       LGT RAIN  77  75  93 E6        29.98F
RALEIGH        MOCLDY    82  70  66 SE6       29.98R

$$

ANZ530>537-280200-
MARINE OBSERVATIONS

STATION/POSITION TIME  TEMP    WIND        PRES
                       AIR SEA DIR/SP/G
                 (UTC) (F)     (DEG/KT/KT) (MB)
THOMAS PT LIGHT  NOT AVBL
BALT KEY BRIDGE  0000   81     140/  7/  8 1014.9R
COVE POINT       0000   81     190/ 15/ 17 1015.7R
LEWISETTA        0000   81 84  170/  6/  7 1014.9R
SOLOMONS ISLAND  0000      83                N/A

$$




USA.gov is the U.S. government's official web portal to all federal, state and local government web resources and services.